« Back
NWS Peachtree City, Ga » Text Product » GA Regional Weather Roundup


Printer-friendly Version
Current Version              Previous Versions:   1  2  3  4  5  6  7  8  9  

Regional Weather Roundup

253
ASUS42 KFFC 280403
RWRGA
WEATHER ROUNDUP FOR GEORGIA
NATIONAL WEATHER SERVICE PEACHTREE CITY GA
1200 AM EDT SAT MAR 28 2015

NOTE: "FAIR" INDICATES FEW OR NO CLOUDS BELOW 12,000 FEET WITH NO
SIGNIFICANT WEATHER AND/OR OBSTRUCTIONS TO VISIBILITY.

* = USE WITH CAUTION. THE STATIONS MARKED WITH AN ASTERISK MAY NOT
REPORT WEATHER SUCH AS PRECIPITATION, FOG, OR THUNDER AND ARE NOT
QUALITY CONTROLLED BY NWS.

THE REMARK "TC" DENOTES TEMPERATURE READING IN DEGREES CELSIUS.

GAZ001>058-280500-
NORTH GEORGIA

CITY           SKY/WX    TMP DP  RH WIND       PRES   REMARKS
ATLANTA        PTCLDY    44  29  55 NW9       30.00R
ATHENS         CLEAR     45  28  51 NW9       29.96R
CHAMBLEE       CLEAR     42  28  57 NW8       30.00R
PEACHTREE CITY CLEAR     45  31  58 NW10      30.03R
ROME           CLOUDY    43  31  62 N13       30.05R
WEST ATLANTA   PTCLDY    43  29  57 W7        30.02R
GAINESVILLE    CLEAR     41  28  60 NW9       29.98R
CARTERSVILLE   CLOUDY    42  31  64 CALM      30.04R


CITY           SKY/WX    TMP DP  RH WIND       PRES   REMARKS
DALTON*        CLOUDY    41  32  70 N14       30.04R
MARIETTA       MIX PCPN  44  30  59 NW10      30.00R
$$

GAZ059>098-102>109-280500-
CENTRAL GEORGIA

CITY           SKY/WX    TMP DP  RH WIND       PRES   REMARKS
AUGUSTA-BUSH   CLOUDY    48  43  82 CALM      29.93R
AUGUSTA-DANIEL CLOUDY    48  43  82 CALM      29.93R
COLUMBUS       CLEAR     48  30  49 NW12      30.05R
MACON          CLEAR     49  29  46 NW17G24   30.00R
ROBINS AFB     CLEAR     50  29  44 NW20G28   29.95S


CITY           SKY/WX    TMP DP  RH WIND       PRES   REMARKS
LAGRANGE*      CLEAR     48  36  63 NW13      30.05R
SYLVANIA*      CLOUDY    51  46  84 N7        29.92R
MILLEDGEVILLE* CLEAR     50  34  53 NW9G17    29.98R
$$

GAZ099>101-110>166-280500-
SOUTH GEORGIA

CITY           SKY/WX    TMP DP  RH WIND       PRES   REMARKS
SAVANNAH       PTCLDY    49  36  61 N6        29.90R
VALDOSTA       CLEAR     50  40  68 VRB5      30.00R
ALMA           CLEAR     52  37  56 W13       29.96R
ST SIMONS      PTCLDY    55  43  63 W12G20    29.91R
FT STEWART     PTCLDY    51  42  69 W7        29.90R
ALBANY         CLEAR     53  31  42 NW15G24   30.05R
HUNTER AFB     CLEAR     47  41  80 W6        29.88R
MOODY AFB      CLEAR     53  36  51 W7        29.98R
BRUNSWICK      PTCLDY    54  43  66 W9        29.93R


CITY           SKY/WX    TMP DP  RH WIND       PRES   REMARKS
BAINBRIDGE*    CLEAR     55  37  50 NW9       30.05R
MOULTRIE*      CLEAR     54  36  50 NW8       30.03R
VIDALIA*       CLOUDY    54  36  50 NW13      29.94R
WAYCROSS*      CLEAR     54  44  69 W6        29.96R
DOUGLAS*       CLEAR     54  36  50 NW7G20    29.99R
$$



USA.gov is the U.S. government's official web portal to all federal, state and local government web resources and services.